Weather History for KFST - March, 2012

Change the Weather History Date:

Thursday, March 22, 2012

  Actual Average Record
Temperature  
Mean Temperature 63 °F -  
Max Temperature 82 °F 70 °F 89 °F (2011)
Min Temperature 44 °F 46 °F 32 °F (2002)
Degree Days  
Heating Degree Days 2    
Growing Degree Days 13 (Base 50)    
Moisture  
Dew Point 17 °F    
Average Humidity 20    
Maximum Humidity 46    
Minimum Humidity 8    
Precipitation  
Precipitation 0.00 in - - ()
Sea Level Pressure  
Sea Level Pressure 29.81 in    
Wind  
Wind Speed 11 mph (WSW)    
Max Wind Speed 17 mph    
Max Gust Speed 23 mph    
Visibility 10 miles    
Events      
Averages and records for this station are not official NWS values.
T = Trace of Precipitation, MM = Missing Value Source: NWS Daily Summary

Daily Weather History Graph

Daily Weather History Graph

Search for Another Location

Airport or City:

Trip Planner

Search our weather history database for the weather conditions in past years. The results will help you decide how hot, cold, wet, or windy it might be!

Date:

Astronomy

Mar. 22, 2012 Rise Set
Actual Time 7:52 AM CDT 8:04 PM CDT
Civil Twilight 7:28 AM CDT 8:28 PM CDT
Nautical Twilight 7:00 AM CDT 8:57 PM CDT
Astronomical Twilight 6:31 AM CDT 9:25 PM CDT
Moon 7:36 AM CDT (3/22) 8:26 PM CDT (3/22)
Length of Visible Light 13h 00m
Length of Day
12h 12m
New Moon, 0% of the Moon is Illuminated
Mar 22
New Moon
Mar 30
First Quarter
Apr 6
Full
Apr 13
Last Quarter
Apr 21
New

Hourly Weather History & Observations

Time (CDT) Temp. Windchill Dew Point Humidity Pressure Visibility Wind Dir Wind Speed Gust Speed Precip Events Conditions
12:53 AM 48.0 °F - 28.0 °F 46% 29.87 in 10.0 mi South 8.1 mph - N/A   Clear
1:53 AM 46.9 °F - 27.0 °F 46% 29.86 in 10.0 mi SSW 9.2 mph - N/A   Clear
2:53 AM 45.0 °F 39.3 °F 23.0 °F 42% 29.85 in 10.0 mi SW 11.5 mph - N/A   Clear
3:53 AM 45.0 °F 39.7 °F 12.9 °F 27% 29.83 in 10.0 mi SW 10.4 mph - N/A   Clear
4:53 AM 46.9 °F - 12.0 °F 24% 29.81 in 10.0 mi SSW 12.7 mph - N/A   Clear
5:53 AM 50.0 °F - 10.9 °F 21% 29.80 in 10.0 mi SSW 13.8 mph - N/A   Clear
6:53 AM 48.9 °F - 9.0 °F 20% 29.80 in 10.0 mi SSW 12.7 mph - N/A   Clear
7:53 AM 44.1 °F 38.6 °F 10.9 °F 26% 29.83 in 10.0 mi SW 10.4 mph - N/A   Clear
8:53 AM 51.1 °F - 10.0 °F 19% 29.83 in 10.0 mi SW 16.1 mph - N/A   Clear
9:53 AM 63.0 °F - 12.0 °F 14% 29.83 in 10.0 mi SW 17.3 mph - N/A   Clear
10:53 AM 70.0 °F - 12.9 °F 11% 29.83 in 10.0 mi SW 12.7 mph - N/A   Clear
11:53 AM 73.9 °F - 16.0 °F 11% 29.83 in 10.0 mi West 13.8 mph 20.7 mph N/A   Clear
12:53 PM 79.0 °F - 19.0 °F 11% 29.81 in 10.0 mi WNW 13.8 mph 21.9 mph N/A   Clear
1:53 PM 79.0 °F - 19.0 °F 11% 29.80 in 10.0 mi WNW 11.5 mph 23.0 mph N/A   Clear
2:53 PM 80.1 °F - 19.0 °F 10% 29.78 in 10.0 mi NW 9.2 mph 20.7 mph N/A   Clear
3:53 PM 82.0 °F - 17.1 °F 9% 29.75 in 10.0 mi West 16.1 mph 23.0 mph N/A   Clear
4:53 PM 82.0 °F - 16.0 °F 8% 29.75 in 10.0 mi NW 11.5 mph 20.7 mph N/A   Clear
5:53 PM 81.0 °F - 14.0 °F 8% 29.74 in 10.0 mi NW 15.0 mph 18.4 mph N/A   Clear
6:53 PM 80.1 °F - 12.9 °F 8% 29.75 in 10.0 mi NW 8.1 mph - N/A   Clear
7:53 PM 75.9 °F - 15.1 °F 10% 29.78 in 10.0 mi NNW 4.6 mph - N/A   Clear
8:53 PM 68.0 °F - 19.9 °F 16% 29.81 in 10.0 mi Calm Calm - N/A   Clear
9:53 PM 63.0 °F - 21.0 °F 20% 29.82 in 10.0 mi South 4.6 mph - N/A   Clear
10:53 PM 62.1 °F - 26.1 °F 25% 29.85 in 10.0 mi East 10.4 mph - N/A   Clear
11:53 PM 59.0 °F - 32.0 °F 36% 29.86 in 10.0 mi ESE 8.1 mph - N/A   Clear